Hourly Data Report for October 12, 2020

SHEARWATER RCS
NOVA SCOTIA
Current Station Operator: ECCC - MSC

44°37'47.000" N
63°30'48.000" W
24.00 m
8205092
71264
AAW

Download Data

Hourly Data (October 2020)
Hourly Data Report for October 12, 2020
TIME Temp Definition
°C
Dew Point Definition
°C
Rel Hum Definition
%
Wind Dir Definition
10's deg

Wind Spd Definition
km/h
Visibility Definition
km
Stn Press Definition
kPa
Hmdx Definition


Wind Chill Definition


Weather Definition


00:00 2.6 -0.4 80 32 6   102.40     LegendNANA
01:00 2.5 -0.3 82 2 7   102.41     LegendNANA
02:00 1.8 -1.1 81 33 7   102.44     LegendNANA
03:00 2.6 -1.1 76 35 13   102.39     LegendNANA
04:00 2.9 -1.8 71 35 17   102.37     LegendNANA
05:00 2.5 -2.3 70 34 9   102.45     LegendNANA
06:00 1.2 -1.7 81 32 6   102.53     LegendNANA
07:00 1.3 -1.5 82 31 4   102.58     LegendNANA
08:00 4.5 -0.4 71 31 4   102.63     LegendNANA
09:00 6.6 -1.0 59 36 12   102.65     LegendNANA
10:00 8.4 -0.9 52 3 7   102.64     LegendNANA
11:00 9.2 -1.9 46 14 2   102.64     LegendNANA
12:00 9.4 -0.3 51 16 11   102.60     LegendNANA
13:00 9.0 -1.2 49 15 10   102.57     LegendNANA
14:00 8.1 -0.5 54 18 14   102.57     LegendNANA
15:00 8.7 0.0 54 16 13   102.52     LegendNANA
16:00 8.7 0.0 54 16 13   102.50     LegendNANA
17:00 7.5 -0.2 58 18 9   102.50     LegendNANA
18:00 5.6 0.6 71 17 2   102.51     LegendNANA
19:00 4.8 0.9 76 0 1   102.56     LegendNANA
20:00 4.2 1.0 80   0   102.54     LegendNANA
21:00 3.8 1.1 83   0   102.56     LegendNANA
22:00 3.8 1.3 84 0 1   102.55     LegendNANA
23:00 4.3 1.9 84 3 4   102.54     LegendNANA

Notes on Data Quality.

Legend

  • E = Estimated
  • M = Missing
  • NA = Not Available*
  • [empty] = Indicates an unobserved value
Date modified: